Find Starlink 38163

NORAD ID: 100250 Int'l Des: 2026-181 Owner: SPXS Country: US Constellation: starlink operational

現在のビュー

3D地球を読み込み中...

About Starlink 38163

Starlink 38163 (NORAD 100250) is a starlink constellation satellite launched Aug 8, 2026 by SPXS of US. with a mass of 575.00 kg.

次回通過

Passes for default location (London). Set your location on the main map for personalized predictions.

高度履歴

Loading altitude history...

軌道要素

1 A0250U 26181E 26255.12256286 .00090172 00000-0 59817-3 0 9999
2 A0250 97.2831 298.1833 0001289 38.5107 321.6250 15.75224504 6636
Epoch: Sep 12, 2026 • Age: 14 hours

現在のステータス

高度 348.0 km
遠地点 / 近地点 N/A
速度 7.70 km/s
衛星直下点 -2.48°S, 134.74°W
打ち上げ日 Aug 8, 2026
運用期間 35 days
タイプ internet

技術仕様

分類 Payload
質量 575.00 kg
乾燥質量 530.00 kg
総質量 575.00 kg
長さ 0.30 m
直径 4.10 m
スパン 29.00 m
形状 Box + pan
製造者 SPXS
バスタイプ Starlink V2MO
フェーズステータス In Orbit
所有者/国 SPXS/US

Most Searched